• Em Portugal
  • Lista de países
  • Para 7 dias
  • Temperatura da água
  • Mapas de satélite
  • Mapa do tempo
  • Widgets de tempo
  • user-avatar
    Iniciar Sessão

    Previsão horária em Skorodumka

    Hoje, 25 Maio, Sexta-feira

    Tempo Temperatura Precipitação Vento Pressão Humidade
    00:00 +14°C° 0 mm 4 m/s 746 mmHg 91%
    01:00 +14°C° 0 mm 5 m/s 746 mmHg 91%
    02:00 +14°C° 0 mm 4 m/s 746 mmHg 92%
    03:00 +14°C° 0 mm 5 m/s 746 mmHg 91%
    04:00 +14°C° 0 mm 5 m/s 746 mmHg 90%
    05:00 +14°C° 0 mm 6 m/s 746 mmHg 88%
    06:00 +16°C° 0 mm 6 m/s 747 mmHg 83%
    07:00 +17°C° 0 mm 7 m/s 747 mmHg 78%
    08:00 +18°C° 0 mm 8 m/s 747 mmHg 73%
    09:00 +20°C° 0 mm 8 m/s 747 mmHg 70%
    10:00 +21°C° 0 mm 8 m/s 748 mmHg 67%
    11:00 +22°C° 0 mm 8 m/s 748 mmHg 64%
    12:00 +22°C° 0 mm 8 m/s 748 mmHg 64%
    13:00 +22°C° 0 mm 8 m/s 748 mmHg 64%
    14:00 +22°C° 0 mm 8 m/s 748 mmHg 63%
    15:00 +21°C° 0 mm 7 m/s 749 mmHg 65%
    16:00 +20°C° 0 mm 7 m/s 749 mmHg 66%
    17:00 +18°C° 0 mm 7 m/s 749 mmHg 68%
    18:00 +17°C° 0 mm 6 m/s 750 mmHg 68%
    19:00 +15°C° 0 mm 6 m/s 750 mmHg 69%
    20:00 +14°C° 0 mm 5 m/s 751 mmHg 70%
    21:00 +13°C° 0 mm 5 m/s 751 mmHg 69%
    22:00 +12°C° 0 mm 5 m/s 752 mmHg 67%
    23:00 +12°C° 0 mm 5 m/s 752 mmHg 66%

    Amanhã, 26 Maio, Sábado

    Tempo Temperatura Precipitação Vento Pressão Humidade
    00:00 +10°C° 0 mm 5 m/s 753 mmHg 67%
    01:00 +9°C° 0 mm 5 m/s 753 mmHg 68%
    02:00 +10°C° 0 mm 4 m/s 754 mmHg 69%
    03:00 +9°C° 0 mm 5 m/s 754 mmHg 71%
    04:00 +9°C° 0 mm 5 m/s 755 mmHg 73%
    05:00 +8°C° 0 mm 5 m/s 755 mmHg 75%
    06:00 +9°C° 0 mm 5 m/s 756 mmHg 69%
    07:00 +10°C° 0 mm 6 m/s 756 mmHg 63%
    08:00 +12°C° 0 mm 7 m/s 756 mmHg 56%
    09:00 +12°C° 0 mm 7 m/s 757 mmHg 55%
    10:00 +14°C° 0 mm 7 m/s 757 mmHg 54%
    11:00 +15°C° 0 mm 6 m/s 757 mmHg 52%
    12:00 +15°C° 0 mm 6 m/s 757 mmHg 53%
    13:00 +16°C° 0 mm 6 m/s 757 mmHg 53%
    14:00 +16°C° 0 mm 6 m/s 757 mmHg 53%
    15:00 +16°C° 0 mm 5 m/s 757 mmHg 56%
    16:00 +16°C° 0 mm 5 m/s 757 mmHg 58%
    17:00 +15°C° 0 mm 4 m/s 757 mmHg 60%
    18:00 +14°C° 0 mm 4 m/s 757 mmHg 65%
    19:00 +12°C° 0 mm 3 m/s 757 mmHg 70%
    20:00 +10°C° 0 mm 3 m/s 757 mmHg 75%
    21:00 +10°C° 0 mm 3 m/s 757 mmHg 76%
    22:00 +9°C° 0 mm 2 m/s 758 mmHg 77%
    23:00 +8°C° 0 mm 2 m/s 758 mmHg 79%

    Depois de amanhã, 27 Maio, Domingo

    Tempo Temperatura Precipitação Vento Pressão Humidade
    00:00 +8°C° 0 mm 2 m/s 758 mmHg 80%
    01:00 +8°C° 0 mm 2 m/s 758 mmHg 81%
    02:00 +7°C° 0 mm 2 m/s 758 mmHg 82%
    03:00 +7°C° 0 mm 2 m/s 758 mmHg 81%
    04:00 +8°C° 0 mm 2 m/s 758 mmHg 81%
    05:00 +8°C° 0 mm 2 m/s 758 mmHg 80%
    06:00 +10°C° 0 mm 2 m/s 758 mmHg 74%
    07:00 +13°C° 0 mm 2 m/s 758 mmHg 68%
    08:00 +15°C° 0 mm 2 m/s 758 mmHg 61%
    09:00 +16°C° 0 mm 2 m/s 757 mmHg 57%
    10:00 +17°C° 0 mm 2 m/s 757 mmHg 54%
    11:00 +18°C° 0 mm 2 m/s 757 mmHg 50%
    12:00 +18°C° 0 mm 2 m/s 756 mmHg 49%
    13:00 +19°C° 0 mm 2 m/s 756 mmHg 49%
    14:00 +20°C° 0 mm 1 m/s 756 mmHg 48%
    15:00 +20°C° 0 mm 1 m/s 755 mmHg 49%
    16:00 +20°C° 0 mm 1 m/s 755 mmHg 51%
    17:00 +20°C° 0 mm 1 m/s 754 mmHg 52%
    18:00 +18°C° 0 mm 1 m/s 754 mmHg 58%
    19:00 +15°C° 0 mm 1 m/s 754 mmHg 64%
    20:00 +13°C° 0 mm 1 m/s 754 mmHg 69%
    21:00 +13°C° 0 mm 1 m/s 754 mmHg 71%
    22:00 +12°C° 0 mm 1 m/s 754 mmHg 73%
    23:00 +12°C° 0 mm 1 m/s 754 mmHg 75%

    28 Maio, Segunda-feira

    Tempo Temperatura Precipitação Vento Pressão Humidade
    00:00 +11°C° 0 mm 1 m/s 754 mmHg 77%
    01:00 +11°C° 0 mm 1 m/s 754 mmHg 78%
    02:00 +10°C° 0 mm 2 m/s 753 mmHg 80%
    03:00 +10°C° 0 mm 2 m/s 753 mmHg 80%
    04:00 +10°C° 0 mm 2 m/s 753 mmHg 81%
    05:00 +12°C° 0 mm 2 m/s 753 mmHg 82%
    06:00 +14°C° 0 mm 2 m/s 753 mmHg 77%
    07:00 +16°C° 0 mm 2 m/s 753 mmHg 73%
    08:00 +18°C° 0 mm 2 m/s 754 mmHg 68%
    09:00 +19°C° 0 mm 3 m/s 754 mmHg 67%
    10:00 +20°C° 0 mm 3 m/s 754 mmHg 65%
    11:00 +22°C° 0 mm 3 m/s 754 mmHg 63%
    12:00 +22°C° 0,1 mm 4 m/s 754 mmHg 63%
    13:00 +21°C° 0,1 mm 4 m/s 754 mmHg 64%
    14:00 +21°C° 0,1 mm 4 m/s 754 mmHg 64%
    15:00 +21°C° 0 mm 4 m/s 754 mmHg 64%
    16:00 +21°C° 0 mm 4 m/s 754 mmHg 64%
    17:00 +20°C° 0 mm 4 m/s 754 mmHg 64%
    18:00 +18°C° 0 mm 3 m/s 754 mmHg 68%
    19:00 +16°C° 0 mm 3 m/s 754 mmHg 73%
    20:00 +13°C° 0 mm 3 m/s 754 mmHg 77%
    21:00 +13°C° 0 mm 3 m/s 755 mmHg 78%
    22:00 +12°C° 0 mm 3 m/s 755 mmHg 79%
    23:00 +11°C° 0 mm 3 m/s 755 mmHg 79%

    29 Maio, Terça-feira

    Tempo Temperatura Precipitação Vento Pressão Humidade
    00:00 +10°C° 0 mm 3 m/s 756 mmHg 79%
    01:00 +10°C° 0 mm 2 m/s 756 mmHg 79%
    02:00 +9°C° 0 mm 2 m/s 756 mmHg 78%
    03:00 +9°C° 0 mm 2 m/s 756 mmHg 77%
    04:00 +9°C° 0 mm 2 m/s 757 mmHg 77%
    05:00 +9°C° 0 mm 2 m/s 757 mmHg 76%
    06:00 +12°C° 0 mm 2 m/s 757 mmHg 70%
    07:00 +14°C° 0 mm 2 m/s 757 mmHg 64%
    08:00 +16°C° 0 mm 2 m/s 757 mmHg 57%
    09:00 +17°C° 0 mm 2 m/s 757 mmHg 54%
    10:00 +18°C° 0 mm 2 m/s 757 mmHg 51%
    11:00 +19°C° 0 mm 3 m/s 756 mmHg 48%
    12:00 +20°C° 0 mm 3 m/s 756 mmHg 48%
    13:00 +21°C° 0 mm 3 m/s 756 mmHg 49%
    14:00 +21°C° 0 mm 3 m/s 755 mmHg 49%
    15:00 +21°C° 0 mm 3 m/s 755 mmHg 53%
    16:00 +21°C° 0 mm 2 m/s 755 mmHg 56%
    17:00 +21°C° 0 mm 2 m/s 754 mmHg 59%
    18:00 +19°C° 0 mm 2 m/s 754 mmHg 64%
    19:00 +17°C° 0 mm 2 m/s 754 mmHg 69%
    20:00 +15°C° 0 mm 1 m/s 754 mmHg 74%
    21:00 +15°C° 0 mm 1 m/s 754 mmHg 76%
    22:00 +14°C° 0 mm 1 m/s 754 mmHg 77%
    23:00 +14°C° 0 mm 1 m/s 754 mmHg 79%

    30 Maio, Quarta-feira

    Tempo Temperatura Precipitação Vento Pressão Humidade
    00:00 +13°C° 0 mm 1 m/s 754 mmHg 80%
    01:00 +13°C° 0 mm 2 m/s 754 mmHg 81%
    02:00 +13°C° 0 mm 2 m/s 753 mmHg 81%
    03:00 +13°C° 0 mm 2 m/s 753 mmHg 82%
    04:00 +13°C° 0 mm 2 m/s 753 mmHg 82%
    05:00 +14°C° 0 mm 2 m/s 753 mmHg 82%
    06:00 +16°C° 0 mm 3 m/s 753 mmHg 77%
    07:00 +18°C° 0 mm 3 m/s 753 mmHg 72%
    08:00 +20°C° 0 mm 3 m/s 752 mmHg 67%
    09:00 +21°C° 0 mm 4 m/s 752 mmHg 64%
    10:00 +22°C° 0 mm 4 m/s 752 mmHg 61%
    11:00 +23°C° 0 mm 4 m/s 751 mmHg 57%
    12:00 +23°C° 0 mm 5 m/s 751 mmHg 57%
    13:00 +23°C° 0 mm 5 m/s 750 mmHg 57%
    14:00 +25°C° 0 mm 5 m/s 749 mmHg 58%
    15:00 +23°C° 0 mm 5 m/s 749 mmHg 61%
    16:00 +23°C° 0 mm 5 m/s 748 mmHg 64%
    17:00 +23°C° 0 mm 4 m/s 748 mmHg 68%
    18:00 +21°C° 0 mm 4 m/s 748 mmHg 73%
    19:00 +19°C° 0 mm 4 m/s 747 mmHg 78%
    20:00 +18°C° 0 mm 4 m/s 747 mmHg 83%
    21:00 +17°C° 0 mm 4 m/s 747 mmHg 84%
    22:00 +17°C° 0 mm 4 m/s 747 mmHg 84%
    23:00 +15°C° 0 mm 4 m/s 746 mmHg 85%
    Mostrar mais